ProjectID,Date,Electric Generation,Electric Utility Import,Facility Electric Load
,YYYY-MM-DD,kW,kW,kW
70,2010-10-01,2325.05525,2155.2797083333335,4480.334958333333
70,2010-10-02,0.0,2928.2214583333334,2928.2214583333334
70,2010-10-03,0.0,2442.4552916666667,2442.4552916666667
70,2010-10-04,2056.916083333333,2249.1577083333336,4306.073791666667
70,2010-10-05,1524.6119166666667,2569.1119166666667,4093.7238333333335
70,2010-10-06,925.8536666666668,3191.249333333333,4117.103
70,2010-10-07,1144.6907916666667,3231.3413333333333,4376.032125
70,2010-10-08,410.418875,3809.4524166666665,4219.871291666666
70,2010-10-09,0.0,2800.4599166666667,2800.4599166666667
70,2010-10-10,0.0,2438.7521666666667,2438.7521666666667
70,2010-10-11,1065.31375,3115.7623750000002,4181.0761250000005
70,2010-10-12,606.3999166666666,3710.020458333333,4316.420375
70,2010-10-13,1875.9096666666667,1991.3212083333335,3867.230875
70,2010-10-14,1787.0510833333335,2580.9267916666668,4367.9778750000005
70,2010-10-15,2012.4671250000001,1883.75325,3896.220375
70,2010-10-16,0.0,2874.7254166666667,2874.7254166666667
70,2010-10-17,0.0,2436.5849166666667,2436.5849166666667
70,2010-10-18,1577.4793333333334,2589.1733333333336,4166.652666666667
70,2010-10-19,1748.0373749999999,2499.264291666667,4247.301666666666
70,2010-10-20,982.1307083333332,3252.3890833333335,4234.519791666667
70,2010-10-21,453.2470416666667,3385.9480416666665,3839.195083333333
70,2010-10-22,2648.994708333333,1481.7162083333333,4130.710916666667
70,2010-10-23,0.0,2818.0459583333336,2818.0459583333336
70,2010-10-24,0.0,2500.1190833333335,2500.1190833333335
70,2010-10-25,2021.7209583333333,2394.3177083333335,4416.038666666667
70,2010-10-26,2118.2434583333334,2376.946875,4495.190333333334
70,2010-10-27,2601.0816666666665,2074.2291250000003,4675.310791666667
70,2010-10-28,2706.6052083333334,1622.8689166666666,4329.474125
70,2010-10-29,2632.227875,1585.3365416666666,4217.564416666666
70,2010-10-30,0.0,2800.8903333333333,2800.8903333333333
70,2010-10-31,0.0,2469.367083333333,2469.367083333333
70,2010-11-01,2199.9708333333333,1994.3303333333333,4194.301166666666
70,2010-11-02,1690.132625,2467.2035,4157.336125
70,2010-11-03,1068.2381666666668,3191.0026249999996,4259.240791666666
70,2010-11-04,2152.996625,2111.2029166666666,4264.199541666667
70,2010-11-05,1994.9902916666667,2072.0544166666664,4067.044708333333
70,2010-11-06,0.0,2788.137,2788.137
70,2010-11-07,0.0,2453.112375,2453.112375
70,2010-11-08,1768.6699583333332,2336.7324583333334,4105.402416666667
70,2010-11-09,1789.6948750000001,2376.726458333333,4166.421333333334
70,2010-11-10,853.6856666666666,3338.415833333333,4192.1015
70,2010-11-11,71.10166666666667,4141.067916666667,4212.169583333333
70,2010-11-12,0.0,,0.0
70,2010-11-13,0.0,,0.0
70,2010-11-14,0.0,,0.0
70,2010-11-15,1449.2909583333333,2828.2625000000003,4277.553458333334
70,2010-11-16,1920.32675,2389.9055000000003,4310.23225
70,2010-11-17,2720.5300416666664,1675.967625,4396.497666666666
70,2010-11-18,2788.941875,1499.89325,4288.835125
70,2010-11-19,2651.4220416666667,1439.1120833333334,4090.534125
70,2010-11-20,0.0,2793.100458333333,2793.100458333333
70,2010-11-21,0.0,2478.3735416666664,2478.3735416666664
70,2010-11-22,2605.145791666667,1776.4115833333333,4381.557375
70,2010-11-23,2773.1846666666665,1553.452625,4326.637291666666
70,2010-11-24,2576.7372083333335,1410.7868333333333,3987.5240416666666
70,2010-11-25,0.0,2404.941375,2404.941375
70,2010-11-26,2263.6042916666665,1221.0607083333332,3484.665
70,2010-11-27,0.0,2816.0074999999997,2816.0074999999997
70,2010-11-28,0.0,2479.179166666667,2479.179166666667
70,2010-11-29,2534.400875,1573.364347826087,4107.765222826087
70,2010-11-30,1922.8902083333332,2371.5505,4294.4407083333335
70,2010-12-01,1888.5857916666666,2464.34075,4352.926541666667
70,2010-12-02,2056.2933749999997,2012.3556666666666,4068.6490416666666
70,2010-12-03,2479.3927083333333,1532.4754999999998,4011.8682083333333
70,2010-12-04,0.0,3031.895375,3031.895375
70,2010-12-05,0.0,2766.2689583333336,2766.2689583333336
70,2010-12-06,2651.547375,1556.5733333333335,4208.120708333334
70,2010-12-07,2667.734125,1561.7151666666666,4229.449291666667
70,2010-12-08,2698.482666666667,1565.619625,4264.102291666667
70,2010-12-09,2151.2992083333334,2110.523333333333,4261.822541666666
70,2010-12-10,150.80370833333333,3931.2679583333334,4082.0716666666667
70,2010-12-11,0.0,2753.936208333333,2753.936208333333
70,2010-12-12,0.0,2432.7650416666665,2432.7650416666665
70,2010-12-13,2176.2169166666667,2001.1440833333334,4177.361
70,2010-12-14,2700.873708333333,1584.5396666666666,4285.413375
70,2010-12-15,2353.782541666667,1864.3874166666667,4218.169958333334
70,2010-12-16,2578.3347083333333,1652.5842083333334,4230.9189166666665
70,2010-12-17,2624.884833333333,1518.891375,4143.776208333333
70,2010-12-18,0.0,3008.3842916666667,3008.3842916666667
70,2010-12-19,0.0,2761.8548750000004,2761.8548750000004
70,2010-12-20,0.0,4080.7515,4080.7515
70,2010-12-21,0.0,4122.511750000001,4122.511750000001
70,2010-12-22,0.0,4030.51025,4030.51025
70,2010-12-23,0.0,3864.205625,3864.205625
70,2010-12-24,0.0,2740.1727916666664,2740.1727916666664
70,2010-12-25,0.0,2706.6757916666666,2706.6757916666666
70,2010-12-26,0.0,2703.1095833333334,2703.1095833333334
70,2010-12-27,0.0,3497.767916666666,3497.767916666666
70,2010-12-28,0.0,3783.0545416666664,3783.0545416666664
70,2010-12-29,18.858541666666667,4021.247083333333,4040.1056249999997
70,2010-12-30,0.5000416666666666,4054.9383749999997,4055.4384166666664
70,2010-12-31,0.0,3050.729541666667,3050.729541666667
70,2011-01-01,0.0,2924.739125,2924.739125
70,2011-01-02,0.0,2905.567916666667,2905.567916666667
70,2011-01-03,1179.781875,3011.551916666667,4191.333791666667
70,2011-01-04,17.800583333333332,3960.7169166666667,3978.5175
70,2011-01-05,0.0,4071.2640833333335,4071.2640833333335
70,2011-01-06,0.0,4165.370708333333,4165.370708333333
70,2011-01-07,0.0,4102.849666666667,4102.849666666667
70,2011-01-08,0.0,3260.726625,3260.726625
70,2011-01-09,0.0,3117.66275,3117.66275
70,2011-01-10,0.0,4285.574625,4285.574625
70,2011-01-11,681.1017916666666,4152.293791666667,4833.395583333334
70,2011-01-12,2008.4320416666667,3040.2153749999998,5048.647416666667
70,2011-01-13,2772.4662083333333,1524.4585833333333,4296.924791666666
70,2011-01-14,2760.201916666667,1515.9448333333332,4276.14675
70,2011-01-15,0.0,3092.4770000000003,3092.4770000000003
70,2011-01-16,0.0,2614.417625,2614.417625
70,2011-01-17,2218.8075,1583.8242083333334,3802.6317083333333
70,2011-01-18,2659.5112916666667,1549.8545416666666,4209.365833333333
70,2011-01-19,2196.6595833333336,1829.9150833333333,4026.574666666667
70,2011-01-20,2136.4977916666667,1995.090125,4131.587916666666
70,2011-01-21,2522.931708333333,1519.97625,4042.907958333333
70,2011-01-22,0.0,3227.00775,3227.00775
70,2011-01-23,0.0,3210.7774583333335,3210.7774583333335
70,2011-01-24,2597.838625,1940.06275,4537.9013749999995
70,2011-01-25,2627.1226666666666,1572.5817916666667,4199.704458333334
70,2011-01-26,2636.8872916666664,1572.141125,4209.028416666666
70,2011-01-27,2529.537375,1443.0990833333333,3972.6364583333334
70,2011-01-28,1732.9948333333332,2343.8169166666667,4076.81175
70,2011-01-29,0.0,2819.6094166666667,2819.6094166666667
70,2011-01-30,0.0,2618.751708333333,2618.751708333333
70,2011-01-31,2006.6867916666667,2192.722416666667,4199.4092083333335
70,2011-02-01,2567.5949166666664,1692.9905416666668,4260.585458333333
70,2011-02-02,2608.82,1509.8192916666667,4118.639291666666
70,2011-02-03,2478.0530833333332,1771.5083750000001,4249.561458333334
70,2011-02-04,2644.687375,1564.9743333333333,4209.661708333333
70,2011-02-05,0.0,2858.6725833333335,2858.6725833333335
70,2011-02-06,0.0,2350.3775416666667,2350.3775416666667
70,2011-02-07,2494.1915416666666,1475.4862916666668,3969.677833333333
70,2011-02-08,1256.0159999999998,1537.6804583333333,2793.696458333333
70,2011-02-09,2444.764041666667,1791.6545833333332,4236.418625
70,2011-02-10,2632.5901666666664,1613.4695833333333,4246.059749999999
70,2011-02-11,1744.3287916666668,2424.3560416666664,4168.684833333333
70,2011-02-12,100.738,2801.3534999999997,2902.0914999999995
70,2011-02-13,0.0,2540.28275,2540.28275
70,2011-02-14,2117.956,2013.1207083333331,4131.076708333333
70,2011-02-15,2646.3634583333333,1535.6852916666667,4182.04875
70,2011-02-16,2514.9632500000002,1718.47375,4233.437
70,2011-02-17,2693.2744583333333,1519.483875,4212.758333333333
70,2011-02-18,2694.5757916666666,1466.4737916666666,4161.049583333333
70,2011-02-19,0.0,2932.697791666667,2932.697791666667
70,2011-02-20,0.0,2612.69425,2612.69425
70,2011-02-21,2415.168666666667,1343.9775,3759.146166666667
70,2011-02-22,2719.2975,1548.1222916666666,4267.419791666667
70,2011-02-23,2670.0978333333333,1603.5272083333332,4273.625041666666
70,2011-02-24,2294.374125,1821.969,4116.343124999999
70,2011-02-25,2300.921083333333,1698.9523333333334,3999.8734166666663
70,2011-02-26,0.0,2751.257208333333,2751.257208333333
70,2011-02-27,0.0,2345.7477916666667,2345.7477916666667
70,2011-02-28,1763.1116666666667,2249.7569166666667,4012.8685833333334
70,2011-03-01,2419.623666666667,1745.718,4165.341666666667
70,2011-03-02,2726.412,1511.2888333333333,4237.700833333333
70,2011-03-03,2586.8475,1686.7316250000001,4273.579125
70,2011-03-04,2622.2975,1540.6921249999998,4162.989625
70,2011-03-05,0.0,2693.4199166666667,2693.4199166666667
70,2011-03-06,0.0,2367.1335833333333,2367.1335833333333
70,2011-03-07,2634.172666666667,1516.7584583333335,4150.931125
70,2011-03-08,2706.941333333333,1590.1955,4297.136833333333
70,2011-03-09,2532.28125,1595.0196666666668,4127.300916666667
70,2011-03-10,2637.1990416666667,1499.90325,4137.102291666667
70,2011-03-11,1899.8060416666667,2284.4384583333335,4184.244500000001
70,2011-03-12,0.0,2738.23,2738.23
70,2011-03-13,0.0,2393.282391304348,2393.282391304348
70,2011-03-14,2336.695,1696.6900833333332,4033.3850833333336
70,2011-03-15,1903.7986250000001,2157.9515,4061.7501250000005
70,2011-03-16,2048.5574166666665,2039.1319999999998,4087.689416666666
70,2011-03-17,2025.4782916666666,2306.9405833333335,4332.418875
70,2011-03-18,2078.929583333333,2247.853541666667,4326.783125
70,2011-03-19,0.0,2733.1913333333337,2733.1913333333337
70,2011-03-20,0.0,2413.746375,2413.746375
70,2011-03-21,1891.3485833333334,2174.760875,4066.1094583333334
70,2011-03-22,1200.9940416666666,2832.1896666666667,4033.183708333333
70,2011-03-23,1911.8586666666667,2249.004,4160.862666666667
70,2011-03-24,1859.7938333333334,2237.2935833333336,4097.087416666667
70,2011-03-25,2205.7054166666667,2028.802625,4234.508041666667
70,2011-03-26,0.0,2886.2258333333334,2886.2258333333334
70,2011-03-27,0.0,2583.63,2583.63
70,2011-03-28,2258.890625,1894.2126250000001,4153.10325
70,2011-03-29,2284.5808333333334,1965.8986666666667,4250.4795
70,2011-03-30,2314.2390833333334,1909.6380416666668,4223.877125
70,2011-03-31,2176.527875,1909.988625,4086.5165
70,2011-04-01,2192.9860416666666,1774.9187916666667,3967.904833333333
70,2011-04-02,0.0,2695.531916666667,2695.531916666667
70,2011-04-03,0.0,2379.6899583333334,2379.6899583333334
70,2011-04-04,2312.2145,1945.8929166666667,4258.107416666667
70,2011-04-05,2418.3235,1822.505625,4240.829125
70,2011-04-06,2188.78625,1979.804875,4168.591125
70,2011-04-07,2262.7599166666664,1830.8070833333334,4093.567
70,2011-04-08,2264.6328333333336,1794.235625,4058.8684583333334
70,2011-04-09,0.0,2725.067833333333,2725.067833333333
70,2011-04-10,0.0,2416.923875,2416.923875
70,2011-04-11,2069.04175,2274.3699166666665,4343.411666666667
70,2011-04-12,2541.458875,1841.2983333333334,4382.757208333333
70,2011-04-13,2333.3152083333334,1919.5957083333333,4252.910916666667
70,2011-04-14,2293.4824583333334,1937.4033749999999,4230.885833333334
70,2011-04-15,2146.2441249999997,2052.800125,4199.04425
70,2011-04-16,0.0,2751.4846666666667,2751.4846666666667
70,2011-04-17,0.0,2398.3441666666668,2398.3441666666668
70,2011-04-18,2609.474708333333,1627.9980416666667,4237.47275
70,2011-04-19,2718.9890416666667,1501.3258333333333,4220.314875
70,2011-04-20,1589.5949166666667,2618.1898333333334,4207.78475
70,2011-04-21,2649.3732083333334,1546.8907916666667,4196.264
70,2011-04-22,2550.168958333333,1353.4059166666666,3903.574875
70,2011-04-23,0.0,2754.107375,2754.107375
70,2011-04-24,0.0,2470.367541666667,2470.367541666667
70,2011-04-25,2640.447791666667,1863.7346666666665,4504.182458333334
70,2011-04-26,1956.934375,1796.8237916666667,3753.7581666666665
70,2011-04-27,2118.6669166666666,1269.1315,3387.7984166666665
70,2011-04-28,2125.036541666667,1226.445125,3351.4816666666666
70,2011-04-29,2070.061166666667,1138.963,3209.024166666667
70,2011-04-30,-0.0007499999999999999,1968.3020416666668,1968.3012916666669
70,2011-05-01,0.0,1740.8059999999998,1740.8059999999998
70,2011-05-02,2050.456958333333,1167.663,3218.119958333333
70,2011-05-03,0.0,3187.5693749999996,3187.5693749999996
70,2011-05-04,0.0,3151.054625,3151.054625
70,2011-05-05,0.0,3156.6491666666666,3156.6491666666666
70,2011-05-06,0.0,3048.8433333333337,3048.8433333333337
70,2011-05-07,0.0,2003.8089166666666,2003.8089166666666
70,2011-05-08,0.0,1723.505625,1723.505625
70,2011-05-09,0.0,3167.856875,3167.856875
70,2011-05-10,-0.004958333333333333,3136.715,3136.7100416666667
70,2011-05-11,0.0,3435.137083333333,3435.137083333333
70,2011-05-12,-0.0005416666666666666,3692.330416666666,3692.3298749999994
70,2011-05-13,0.0,3631.4843333333333,3631.4843333333333
70,2011-05-14,0.0,2371.137166666667,2371.137166666667
70,2011-05-15,0.0,,0.0
70,2011-05-16,0.0,,0.0
70,2011-05-17,0.0,,0.0
70,2011-05-18,0.0,,0.0
70,2011-05-19,0.0,,0.0
70,2011-05-20,0.0,3823.3736,3823.3736
70,2011-05-21,0.0,2889.790875,2889.790875
70,2011-05-22,0.0,2753.4867083333334,2753.4867083333334
70,2011-05-23,0.0,3690.1914583333332,3690.1914583333332
70,2011-05-24,0.0,3995.9973750000004,3995.9973750000004
70,2011-05-25,0.0,3788.2273333333337,3788.2273333333337
70,2011-05-26,0.0,3889.6036666666664,3889.6036666666664
70,2011-05-27,0.0,3696.6648333333337,3696.6648333333337
70,2011-05-28,0.0,3016.4070833333335,3016.4070833333335
70,2011-05-29,0.0,2867.61825,2867.61825
70,2011-05-30,0.0,2985.6547083333335,2985.6547083333335
70,2011-05-31,0.0,4101.553541666667,4101.553541666667
70,2011-06-01,0.0,4119.881375,4119.881375
70,2011-06-02,0.0,3803.5260833333336,3803.5260833333336
70,2011-06-03,0.0,3843.452541666667,3843.452541666667
70,2011-06-04,0.0,2918.2255833333334,2918.2255833333334
70,2011-06-05,0.0,2809.651416666667,2809.651416666667
70,2011-06-06,0.0,3787.4180416666663,3787.4180416666663
70,2011-06-07,-0.0015416666666666667,4051.9877083333336,4051.986166666667
70,2011-06-08,0.0,4165.71925,4165.71925
70,2011-06-09,0.0,4241.948958333333,4241.948958333333
70,2011-06-10,0.0,3986.9468333333334,3986.9468333333334
70,2011-06-11,0.0,2948.450375,2948.450375
70,2011-06-12,0.0,2856.9877500000002,2856.9877500000002
70,2011-06-13,0.0,3489.7185000000004,3489.7185000000004
70,2011-06-14,0.0,3493.3655,3493.3655
70,2011-06-15,164.85433333333333,3194.854041666667,3359.708375
70,2011-06-16,1799.38425,1554.1377499999999,3353.522
70,2011-06-17,2090.960583333333,1281.5420833333333,3372.5026666666663
70,2011-06-18,0.017875,2110.5014166666665,2110.5192916666665
70,2011-06-19,0.0,1879.642125,1879.642125
70,2011-06-20,2090.17175,1305.49575,3395.6675
70,2011-06-21,2095.9314583333335,1304.5914166666666,3400.522875
70,2011-06-22,2117.76175,1333.1485416666667,3450.910291666667
70,2011-06-23,2067.9975833333333,1620.3599166666665,3688.3575
70,2011-06-24,2076.5472083333334,1211.354625,3287.9018333333333
70,2011-06-25,-0.018416666666666668,2160.0671666666667,2160.04875
70,2011-06-26,0.0,1926.8495833333334,1926.8495833333334
70,2011-06-27,2099.8210833333333,1323.6624583333335,3423.4835416666665
70,2011-06-28,2002.585875,1736.3553333333332,3738.941208333333
70,2011-06-29,2116.9050833333336,1560.2563333333335,3677.161416666667
70,2011-06-30,2050.0281666666665,1433.3170833333334,3483.34525
70,2011-07-01,1701.8689583333335,1485.2534166666667,3187.122375
70,2011-07-02,0.0,2145.5572500000003,2145.5572500000003
70,2011-07-03,0.0,1849.4683333333332,1849.4683333333332
70,2011-07-04,0.0,1967.0133333333333,1967.0133333333333
70,2011-07-05,2081.2146666666667,1497.3725833333335,3578.5872500000005
70,2011-07-06,2036.3948333333335,1684.3226666666667,3720.7175
70,2011-07-07,2074.2157083333336,1636.9675833333333,3711.183291666667
70,2011-07-08,1900.891875,2458.1005,4358.992375
70,2011-07-09,0.0,3147.6690416666665,3147.6690416666665
70,2011-07-10,0.0,2733.1164583333334,2733.1164583333334
70,2011-07-11,2874.5665000000004,2428.82325,5303.38975
70,2011-07-12,1685.0382083333334,3455.68925,5140.727458333333
70,2011-07-13,2099.459375,2988.2357916666665,5087.695166666666
70,2011-07-14,1893.3150833333332,2834.315666666667,4727.63075
70,2011-07-15,0.0,,0.0
70,2011-07-16,0.0,,0.0
70,2011-07-17,0.0,,0.0
70,2011-07-18,2214.1030416666667,3078.943541666667,5293.046583333334
70,2011-07-19,1628.4904166666665,3567.3092916666665,5195.799708333333
70,2011-07-20,2030.90675,2550.4079166666666,4581.314666666667
70,2011-07-21,2791.4252500000002,2186.7478333333333,4978.173083333333
70,2011-07-22,2452.3417083333334,3057.7795833333334,5510.121291666666
70,2011-07-23,0.0,4622.674416666667,4622.674416666667
70,2011-07-24,0.0,3457.717041666667,3457.717041666667
70,2011-07-25,2477.8876666666665,1772.9872083333332,4250.8748749999995
70,2011-07-26,2533.8300416666666,1599.7025,4133.5325416666665
70,2011-07-27,2522.7784166666665,1570.1412083333335,4092.919625
70,2011-07-28,2540.3414583333333,1608.201,4148.542458333333
70,2011-07-29,2302.523125,1815.7559583333332,4118.279083333333
70,2011-07-30,0.0,2551.3411666666666,2551.3411666666666
70,2011-07-31,0.0,2377.86875,2377.86875
70,2011-08-01,2215.1202083333333,2710.6094583333334,4925.729666666666
70,2011-08-02,2326.60575,1846.6954583333334,4173.301208333333
70,2011-08-03,2557.3549583333333,1620.10575,4177.460708333333
70,2011-08-04,2484.8459166666667,1490.6139583333334,3975.459875
70,2011-08-05,2500.5123333333336,1562.6791666666668,4063.1915000000004
70,2011-08-06,230.22716666666668,2335.833958333333,2566.0611249999997
70,2011-08-07,0.0,2194.2038333333335,2194.2038333333335
70,2011-08-08,2469.6499166666667,2195.418,4665.067916666667
70,2011-08-09,2219.3209166666666,1992.6632916666667,4211.984208333333
70,2011-08-10,1635.6897499999998,2460.7564166666666,4096.446166666667
70,2011-08-11,1881.9344583333334,2175.404541666667,4057.339
70,2011-08-12,2043.9270833333333,1702.0831666666666,3746.01025
70,2011-08-13,0.0,2517.020916666667,2517.020916666667
70,2011-08-14,0.0,2025.9067916666665,2025.9067916666665
70,2011-08-15,2046.4200416666665,2079.8917500000002,4126.311791666667
70,2011-08-16,2089.3642083333334,1750.100125,3839.4643333333333
70,2011-08-17,0.0,,0.0
70,2011-08-18,0.0,,0.0
70,2011-08-19,0.0,,0.0
70,2011-08-20,0.0,,0.0
70,2011-08-21,0.0,2080.3177499999997,2080.3177499999997
70,2011-08-22,2302.192625,1889.8832083333334,4192.075833333333
70,2011-08-23,2521.230125,1235.7672083333334,3756.9973333333337
70,2011-08-24,2547.783125,1379.3819583333334,3927.1650833333333
70,2011-08-25,2562.68025,1604.1616666666666,4166.841916666666
70,2011-08-26,2460.1255,1596.752625,4056.878125
70,2011-08-27,0.0,1933.87425,1933.87425
70,2011-08-28,0.0,1702.2372916666666,1702.2372916666666
70,2011-08-29,991.569625,2024.0421363636365,3015.6117613636366
70,2011-08-30,2467.047375,1331.6247916666666,3798.6721666666667
70,2011-08-31,2049.008333333333,1756.85625,3805.864583333333
70,2011-09-01,2277.6869166666665,1604.7444583333333,3882.431375
70,2011-09-02,2165.657333333333,1453.4890833333332,3619.1464166666665
70,2011-09-03,0.0,2421.93875,2421.93875
70,2011-09-04,0.0,2009.5546666666667,2009.5546666666667
70,2011-09-05,0.0,2072.2107083333335,2072.2107083333335
70,2011-09-06,2414.8055,1461.3975833333334,3876.2030833333333
70,2011-09-07,2432.0440416666665,1171.2750416666665,3603.319083333333
70,2011-09-08,2232.415875,1576.9725416666668,3809.3884166666667
70,2011-09-09,2154.6784583333333,1862.3495416666667,4017.0280000000002
70,2011-09-10,209.91191666666668,2475.031916666667,2684.9438333333337
70,2011-09-11,-0.0022916666666666667,1968.915875,1968.9135833333332
70,2011-09-12,2237.322958333333,1837.6136666666669,4074.9366250000003
70,2011-09-13,2489.380125,1482.0981666666667,3971.478291666667
70,2011-09-14,2553.3635833333333,1537.3895,4090.753083333333
70,2011-09-15,2517.53175,1304.6433749999999,3822.1751249999998
70,2011-09-16,2362.5509583333333,1132.3912916666666,3494.94225
70,2011-09-17,497.98579166666667,1926.8797083333332,2424.8655
70,2011-09-18,0.0,1833.802875,1833.802875
70,2011-09-19,2376.5048333333334,1168.28425,3544.789083333333
70,2011-09-20,2438.1384583333333,1110.6552916666667,3548.79375
70,2011-09-21,2522.7070416666666,1144.0771666666667,3666.7842083333335
70,2011-09-22,2519.84075,1332.0257083333333,3851.866458333333
70,2011-09-23,2486.6515833333333,1437.3933333333334,3924.0449166666667
70,2011-09-24,-0.002958333333333333,2497.759666666667,2497.7567083333333
70,2011-09-25,0.0,2010.8509166666665,2010.8509166666665
70,2011-09-26,2450.4817916666666,1698.3528749999998,4148.834666666667
70,2011-09-27,2488.126875,1618.358625,4106.4855
70,2011-09-28,2128.77525,1532.0578333333333,3660.8330833333334
70,2011-09-29,2047.2068333333334,1907.7142083333335,3954.921041666667
70,2011-09-30,2569.4075,1824.09425,4393.501749999999
70,2011-10-01,0.000875,2835.3880000000004,2835.3888750000006
70,2011-10-02,0.0,2324.0822916666666,2324.0822916666666
70,2011-10-03,2639.64975,1525.127125,4164.776875
70,2011-10-04,1982.5239166666668,1897.8122083333335,3880.3361250000003
70,2011-10-05,2381.3780416666664,1826.1041666666667,4207.482208333333
70,2011-10-06,727.538,3214.875125,3942.413125
70,2011-10-07,0.0,3714.473,3714.473
70,2011-10-08,0.0,2755.6351250000002,2755.6351250000002
70,2011-10-09,0.0,2487.1712916666665,2487.1712916666665
70,2011-10-10,0.0,4599.823666666666,4599.823666666666
70,2011-10-11,0.0,4349.72225,4349.72225
70,2011-10-12,601.6179166666667,3488.8254166666666,4090.443333333333
70,2011-10-13,2255.5617916666665,2031.323,4286.884791666666
70,2011-10-14,2266.2632083333333,2065.6415,4331.9047083333335
70,2011-10-15,-0.0004583333333333333,2339.072052631579,2339.0715942982456
70,2011-10-16,0.0,2329.86725,2329.86725
70,2011-10-17,1958.1357916666666,2211.149,4169.284791666667
70,2011-10-18,2248.7005833333333,1950.1243333333332,4198.8249166666665
70,2011-10-19,2233.4125,2070.01025,4303.42275
70,2011-10-20,2203.3269583333336,2156.875125,4360.202083333334
70,2011-10-21,2673.708,1413.7907083333332,4087.4987083333335
70,2011-10-22,0.0,2680.7172083333335,2680.7172083333335
70,2011-10-23,0.0,2276.28375,2276.28375
70,2011-10-24,1395.5308333333332,2716.81675,4112.347583333333
70,2011-10-25,2773.9439583333333,1434.0076666666666,4207.951625
70,2011-10-26,2736.575875,1448.9731250000002,4185.549
70,2011-10-27,2720.156875,1429.8140416666665,4149.970916666667
70,2011-10-28,2427.6757916666666,1465.406,3893.0817916666665
70,2011-10-29,0.0,2702.310791666667,2702.310791666667
70,2011-10-30,0.0,2409.170125,2409.170125
70,2011-10-31,2500.752,1596.6159166666666,4097.367916666666
70,2011-11-01,2559.497,1530.2366249999998,4089.733625
70,2011-11-02,2600.1829583333333,1549.252125,4149.435083333334
70,2011-11-03,2754.046791666667,1506.64725,4260.6940416666675
70,2011-11-04,2676.3462083333334,1411.6878333333334,4088.034041666667
70,2011-11-05,0.0,2589.5421666666666,2589.5421666666666
70,2011-11-06,-0.001,2292.79525,2292.79425
70,2011-11-07,1884.86075,2256.0133333333333,4140.874083333333
70,2011-11-08,1969.65275,2260.28525,4229.938
70,2011-11-09,2040.3817499999998,2223.44925,4263.831